Погода Соловецкие Острова

Погода Соловецкие Острова : погода сейчас, прогноз погоды и архив. Всё, что Вы хотите узнать о погоде Соловецкие Острова!

Хотите узнать прогноз погоды Соловецкие Острова? Тогда Вам сюда: Погода Соловецкие Острова

Поиск расширенной информации на нашем сайте:

Другие новости

Новости СМИ2

Главная страница сайта

Новости сайта

03.07.2017

Напоминаем, что на нашем специализированном сайте Метеоцентр.Азия вы можете получить высокодетализированные автоматические прогнозы погоды по пунктам России, СНГ и мира в авиационном формате (включающие направление и скорость ветра, видимость, явления погоды, количество и форму облачности, нижнюю и верхнюю границу облачности).


Погода Соловецкие Острова - сегодня

Время (UTC), дата Ветер
(°,м/с) 
Видим.   Явления Облачность Т
(°С)
Тd
(°С)
f(%) Тe
(°С)
Pmin
(гПа)
dP
(гПа)
Po
(мм)
O2
(г/м3)
Тmin Tmax R s Состояние
почвы
15 18.07.18 040 (СВ) 30000 м    ясно 
+22.8 +10.9 47 +25  1021.9  -1.2  766  283    +23.4       
18 18.07.18 050 (СВ) 35000 м    ясно 
+19.5 +13 66 +25  1021.4  -0.5  765  285           
21 18.07.18 070 (В) 28000 м    ясно 
+16.7 +12.9 78 +23  1021.1  -0.3  765  288           
00 19.07.18 050 (СВ) 26000 м    ясно 
+15.5 +13.4 87 +22  1022.1  766  289           
06 19.07.18 050 (СВ) 30000 м    ясно 
+22 +14.6 63 +29  1022.5  0.3  766  283           
09 19.07.18 050 (СВ) 35000 м    ясно 
+23.6 +15.1 59 +32  1022.1  -0.3  766  281           
12 19.07.18 050 (СВ) 35000 м    ясно 
+22.9 +13.9 57 +29  1021.6  -0.6  766  282           
15 19.07.18 050 (СВ) 35000 м    ясно 
+21.9 +14 61 +28  1020.6  -1  765  282    +24.2       
18 19.07.18 050 (СВ) 30000 м    1/0 верхняя 
[Ci fib]
+18.9 +13.9 73 +26  1019.7  -0.9  764  285           
21 19.07.18 040 (СВ) 30000 м    ясно 
+15.8 +12.9 83 +21  1019.8  0.1  764  289           
00 20.07.18 040 (СВ) 30000 м    ясно 
+15.3 +13.5 89 +22  1020  0.2  764  289           
06 20.07.18 060 (СВ) 30000 м    ясно 
+21.2 +15.5 70 +30  1019.4  -0.2  764  282           
09 20.07.18 060 (СВ) 30000 м    ясно 
+23.7 +15.2 59 +32  1018.8  -0.5  764  280           
12 20.07.18 050 (СВ) 28000 м    3/1 1000 м верхняя 
[Cu med, cong|Ci fib]
+24 +14.4 55 +31  1017.8  -1.1  763  280           
18 20.07.18 050 (СВ) 35000 м    5/1 1000 м средняя, верхняя 
[Cu med, cong|Ac cast|Ci sp]
+19.1 +14.3 74 +27  1015.9  -0.4  761  284           
21 20.07.18 060 (СВ) 35000 м    8/0 средняя, верхняя 
[Ac As|Ci sp]
+18.1 +14 77 +26  1015.7  -0.2  761  285           
00 21.07.18 100 (В) 35000 м    3/0 верхняя 
[Ci sp]
+19.7 +13.7 68 +27  1015.5  -0.2  761  283           
06 21.07.18 130 (ЮВ) 5{10}  23000 м    8/0 верхняя 
[Cs]
+21.8 +15.2 66 +30  1014.8  -0.2  760  281           
09 21.07.18 130 (ЮВ) 5-10{10}  20000 м    6/0 верхняя 
[Cs]
+25.7 +15.7 54 +35  1014  -0.8  760  277           
18 21.07.18 130 (ЮВ) 23000 м    9/0 средняя, верхняя 
[Ac cast|Cc]
+22.6 +13.6 57 +29  1011.8  -0.2  758  279           
21 21.07.18 130 (ЮВ) 5{10}  23000 м    3/0 средняя, верхняя 
[Ac trans|Ci fib]
+20.6 +13.6 64 +27  1011.6  -0.2  758  281           
03 22.07.18 130 (ЮВ) 6-10{10}  24000 м    8/0 средняя, верхняя 
[Ac cast|Ci sp]
+18.3 +14 76 +25  1011.3  -0.4  758  283  +17.4        сухая 
06 22.07.18 130 (ЮВ) 6-10{11}  28000 м    8/1 1000 м средняя, верхняя 
[Cu med, cong|Ac trans|Ci sp]
+19.6 +14.6 73 +28  1010.6  -0.8  757  282           
09 22.07.18 140 (ЮВ) 6-10{13}  28000 м    9/1 1000 м средняя, верхняя 
[Cu med, cong|Ac As|Cs]
+21 +15.8 72 +31  1010.3  -0.3  757  280           
18 22.07.18 160 (Ю) 5{10}  12000 м    8/4 1000 м средняя, верхняя 
[Sc|Ac cast|Cc]
+20.5 +17.7 84 +34  1010.1  757  280           
Время (UTC), дата Ветер
(°,м/с) 
Видим.   Явления Облачность Т
(°С)
Тd
(°С)
f(%) Тe
(°С)
Pmin
(гПа)
dP
(гПа)
Po
(мм)
O2
(г/м3)
Тmin Tmax R s Состояние
почвы

Для получения пояснительной информации подведите курсор к названию столбца.

ПОГОДА Соловецкие Острова - архив

Всё, что Вы хотите узнать о погоде Соловецкие Острова - удобно и подробно!

Выберите нужную дату (начиная с 1 января 2015* года) и нажмите кнопку "Найти".
Будут отображены архивные сводки погоды по пункту Соловецкие Острова, начиная с указанной даты.


Отображать данные в формате CSV (для использования в таблицах Excel)


Внимание! Наш архив погоды предназначен исключительно для личного некоммерческого использования в познавательных целях. Если Вам необходимы официальные справки о состоянии погоды (для производственных, юридических, коммерческих и т.п. целей), обращайтесь в органы Росгидромета.

*Примечание: данная дата относится к архиву по метеостанциям СССР (Россия, СНГ, Балтия).
Архив по метеостанциям Зарубежной Европы и Азии (кроме Китая) хранится 10 дней, по другим регионам земного шара (Китай, Африка, Америка, Австралия, Океания) - 1 день.

Соловецкие Острова - район местоположения метеостанции


Название, широта, долгота, высота метеостанции:
Соловецкие Острова (Кремль) 65°ш. 35.7°д. 7 м над ур. моря [Российская Федерация]

Дополнительная информация

В oтличие oт бoльшинства пoгoдных сайтoв мы публикуем пoдрoбную метеoинфoрмацию в детальнoм прoфессиoнальнoм фoрмате.

Характеристики температуры и влажнoсти вoздуха измеряются на высoте 2 м в тени вдали oт зданий и деревьев.
Скoрoсть ветра измеряется на высoте 10 м (на урoвне рoста челoвека скoрoсть ветра ниже в 1.5-2 раза). Если метеoстанция нахoдится в гoрoде или в лесу, тo скoрoсть ветра занижена на 2-4 м/с пo сравнению с oткрытым местoм. Скoрoсть ветра над акватoриями крупных рек и oзёр, а также на вершинах хoлмoв на 2-5 м/с выше, чем в oбычных услoвиях.
Атмoсфернoе давление в разных тoчках местнoсти мoжет значительнo oтличаться oт давления на метеoстанции, в зависимoсти oт услoвий рельефа (при пoдъёме на 10 м давление пoнижается примернo на 1 мм рт.ст.).